Wind_Speed
44 43 42 41 41 42 42 43 43 43 43 43 43 43 43 43 44 45 46 46 46 46 46 47 48 49 49 49 50 50 51 52 52 51 52 51 51 51 51 52 52 52 53
45 44 43 42 42 42 42 43 44 44 44 44 44 45 45 45 45 46 47 47 48 48 48 48 49 50 51 50 50 51 51 52 52 51 51 50 50 51 52 52 52 53 54
46 45 45 44 43 43 43 44 44 44 45 45 46 46 46 46 47 47 47 48 48 49 49 50 50 51 51 51 51 51 52 52 52 52 51 50 50 52 52 53 53 53 53
46 46 45 45 45 45 45 45 45 45 45 45 46 46 47 47 47 48 48 49 49 49 50 50 50 51 51 51 51 52 52 52 52 52 51 51 52 52 52 52 52 52 52
47 47 46 46 46 45 46 46 46 46 46 46 46 47 47 47 48 48 49 49 49 50 50 51 51 51 52 52 52 51 52 51 51 51 52 52 52 52 52 51 51 50 50
47 47 47 47 47 47 47 47 47 47 47 47 47 47 47 48 48 49 49 49 49 50 50 51 50 51 51 52 52 52 52 52 52 52 52 52 51 51 51 50 49 49 49
47 47 47 48 47 47 47 46 47 47 47 47 47 47 47 48 49 49 49 50 50 50 51 51 51 51 51 51 51 51 52 52 52 53 52 51 50 50 50 50 49 50 49
48 47 47 48 48 47 47 47 47 47 47 47 47 47 48 49 49 50 50 51 51 50 50 51 50 51 51 51 51 51 51 52 52 52 51 50 50 49 49 49 49 49 48
48 48 48 48 47 47 47 47 47 47 47 47 48 48 49 49 50 50 51 51 50 50 50 50 50 50 50 51 51 50 51 51 50 50 50 49 50 49 50 50 49 49 47
47 46 46 46 46 46 45 46 46 47 47 47 47 48 48 49 49 50 50 49 49 49 49 49 49 50 50 50 50 50 50 49 49 49 48 48 49 48 49 48 48 48 47
46 46 46 45 45 45 45 46 46 47 46 46 47 47 48 49 49 49 49 49 49 48 48 48 49 49 49 49 49 49 48 48 48 47 47 48 47 46 46 46 46 46 46
46 46 46 46 45 45 46 46 46 46 46 47 47 47 47 47 48 48 48 48 48 48 48 48 48 48 47 47 47 47 47 46 46 46 46 46 45 45 45 45 46 46 46
44 45 45 45 45 45 46 46 46 46 46 46 46 46 46 47 47 47 47 47 47 47 48 47 47 46 46 46 46 46 46 45 45 45 45 44 44 44 45 45 45 44 44
42 44 45 46 46 46 46 45 45 45 45 46 46 46 46 46 46 46 46 46 46 47 46 45 44 44 44 44 45 45 45 44 44 43 42 42 42 42 43 43 42 42 42
41 42 43 45 46 46 46 46 46 46 46 45 46 46 45 45 45 45 45 44 44 44 43 42 42 42 43 43 43 43 43 42 41 41 41 42 42 42 42 42 41 41 40
40 41 42 43 44 45 45 45 45 45 45 46 45 45 44 44 44 44 43 43 42 41 40 40 41 41 41 42 42 42 41 41 41 41 41 41 40 40 40 39 39 38 38
40 41 42 42 43 44 44 44 44 44 45 45 44 43 43 42 42 41 41 40 39 39 39 39 39 39 40 40 40 39 39 39 39 39 39 39 39 38 37 36 36 36 36
40 41 40 41 42 42 43 44 43 43 43 43 42 42 41 41 40 40 39 38 38 38 38 38 38 39 39 39 39 38 38 38 37 37 37 36 35 35 34 34 35 35 35
40 40 40 40 41 42 42 43 43 42 41 41 40 40 40 39 39 38 37 36 37 37 37 37 37 37 37 37 36 36 35 35 35 34 34 33 33 32 33 34 34 34 33
39 39 39 40 40 40 40 40 39 39 39 38 38 38 38 37 36 36 35 35 35 35 35 35 35 34 34 34 33 32 32 32 32 31 31 31 31 32 32 33 33 33 33
36 37 37 37 37 37 36 36 36 36 35 35 34 34 34 34 33 33 33 33 33 33 33 33 32 32 32 32 31 31 31 31 31 31 31 31 31 32 32 32 32 32 32
32 33 33 33 34 33 33 33 33 33 32 31 31 31 31 31 31 31 32 32 32 32 32 32 31 31 31 30 30 30 30 31 31 31 31 31 31 32 31 31 31 31 30
29 30 30 31 31 31 31 31 30 30 30 29 29 29 29 29 29 30 30 30 31 31 31 31 31 31 30 30 30 29 30 30 29 29 30 30 30 30 29 29 29 30 30
27 27 28 28 29 29 29 28 28 28 28 28 28 28 28 28 28 29 29 30 30 30 30 30 30 29 29 28 28 28 28 28 28 28 29 28 28 27 28 28 28 28 28
26 26 26 27 27 26 26 26 27 27 26 26 26 26 26 27 27 28 28 28 28 28 28 27 27 27 27 27 27 27 27 27 28 28 27 27 27 27 27 27 27 26 26
25 25 24 24 24 24 25 25 24 25 25 25 25 25 25 26 26 26 26 27 27 27 26 26 25 25 25 25 25 26 26 26 27 27 26 26 26 26 25 25 24 24 23
Wind_Direction
248 250 252 254 255 257 259 261 263 265 266 267 269 271 273 275 277 278 280 282 283 285 286 287 287 288 289 291 292 292 293 294 295 295 295 295 296 296 297 297 298 299 299
247 250 251 253 256 258 260 262 264 265 266 268 269 271 273 275 277 279 281 282 283 285 286 286 287 288 289 291 292 293 294 294 295 296 296 296 296 296 297 297 298 299 299
248 250 252 254 257 260 261 263 265 266 267 269 270 271 273 275 277 279 280 282 283 285 286 286 287 288 289 291 292 293 293 294 295 295 296 296 296 297 297 297 298 298 299
249 251 253 255 258 260 262 263 265 267 269 271 272 272 274 275 277 279 281 282 283 284 286 287 287 288 289 291 292 292 293 294 294 295 295 296 295 297 297 297 297 298 298
249 251 253 255 258 260 262 264 265 268 270 272 273 274 275 276 277 279 281 283 284 285 286 287 287 288 289 290 291 292 292 293 293 294 295 296 296 297 297 297 297 298 299
250 251 253 255 258 260 263 264 266 268 270 272 273 274 275 276 277 279 281 283 284 286 286 287 288 288 289 289 290 291 291 292 293 294 295 296 297 297 297 297 297 298 298
249 252 254 256 258 260 262 264 266 268 270 271 273 274 275 276 278 279 281 283 284 286 286 287 287 287 288 289 290 290 291 292 293 293 294 296 297 297 297 297 298 298 299
251 253 255 256 258 260 262 265 267 269 270 272 273 275 276 277 278 279 281 283 284 285 286 287 287 287 288 289 289 290 291 292 293 293 295 295 295 296 297 298 298 298 299
251 253 255 257 259 261 263 265 267 269 270 272 273 275 277 278 280 281 282 283 283 284 285 286 286 287 288 289 289 290 291 292 292 293 294 294 295 296 297 298 298 298 298
252 254 256 257 259 262 264 265 266 268 270 272 274 276 277 279 281 281 282 282 283 284 285 286 286 287 288 289 289 289 290 291 291 292 293 294 295 297 298 298 298 299 299
253 254 256 258 260 262 264 266 267 269 270 272 275 277 278 280 282 282 282 282 284 285 285 286 287 287 287 288 289 289 290 290 291 292 293 294 295 296 297 297 298 299 299
254 255 256 259 260 262 265 267 268 270 271 273 275 278 279 281 282 283 283 283 284 285 286 287 287 287 287 288 289 289 290 291 292 292 293 294 295 296 297 299 299 300 300
254 256 258 260 262 263 265 267 269 270 272 273 275 277 279 281 282 284 284 285 285 286 286 286 287 287 287 288 288 289 290 290 291 293 294 294 294 295 298 299 300 300 300
255 257 258 260 262 264 265 267 269 271 272 274 276 278 279 280 282 284 285 285 285 286 286 286 286 286 287 288 289 290 291 291 292 293 294 295 295 297 298 299 299 299 300
258 259 261 262 263 264 265 267 269 271 273 275 277 279 279 280 281 283 284 285 286 287 286 286 286 286 287 288 290 290 291 291 292 293 294 295 296 296 298 299 299 300 300
259 260 262 264 263 264 266 268 270 273 275 277 278 279 280 281 282 283 284 285 286 286 287 287 287 286 287 289 290 290 290 291 291 293 294 295 296 297 298 298 299 300 300
261 263 264 265 265 265 267 269 270 273 275 277 278 279 280 281 282 283 284 284 285 285 286 287 287 288 289 290 290 291 291 291 292 293 295 296 296 297 297 298 300 301 301
263 263 264 265 266 266 268 269 271 273 275 276 276 278 279 280 281 282 283 283 284 285 286 286 287 288 289 290 291 290 291 292 292 294 296 296 297 297 298 300 301 302 302
264 264 265 266 267 268 270 271 272 274 275 275 276 277 278 278 279 280 281 282 283 285 286 287 288 290 290 291 291 291 292 292 293 294 296 297 298 299 300 302 303 304 304
264 265 266 267 268 269 270 271 272 273 274 275 276 276 277 278 279 280 281 282 283 284 285 287 288 289 290 291 292 292 292 293 294 295 296 298 299 300 302 303 303 304 304
264 264 266 267 268 268 270 271 272 273 274 274 275 275 276 277 278 279 281 283 284 284 285 286 287 288 289 290 290 291 292 293 295 296 297 298 299 300 302 302 304 304 304
263 263 264 265 267 268 269 270 271 271 272 273 274 275 276 277 277 278 280 282 283 284 285 285 286 288 288 288 289 290 292 294 295 295 296 297 298 300 301 302 304 306 306
265 264 265 266 267 268 268 269 269 269 270 272 273 274 275 277 278 279 280 281 283 284 285 285 286 287 287 288 289 291 293 295 295 296 297 298 300 301 302 304 306 307 307
266 267 268 269 269 269 268 267 267 268 269 270 271 272 274 276 279 280 282 282 283 284 285 285 286 286 286 287 289 291 293 295 297 298 299 300 301 302 304 306 307 308 308
266 267 269 270 270 270 269 268 268 269 269 270 271 272 275 277 280 281 282 283 283 284 285 285 285 286 287 288 289 291 293 295 297 299 301 301 303 304 306 308 308 308 309
267 268 270 270 270 270 269 269 269 269 269 271 273 275 277 279 280 281 282 283 284 285 285 285 286 288 289 290 291 292 294 296 299 300 301 302 303 305 306 308 308 308 311
Height
5713 5716 5718 5721 5723 5724 5726 5727 5728 5729 5729 5730 5730 5730 5730 5729 5729 5728 5727 5725 5724 5722 5719 5717 5714 5711 5709 5705 5702 5698 5695 5691 5688 5687 5682 5677 5672 5668 5663 5659 5655 5650 5645
5703 5706 5709 5711 5713 5714 5716 5717 5718 5719 5719 5719 5720 5719 5719 5719 5718 5717 5716 5714 5712 5710 5708 5705 5702 5699 5697 5693 5690 5686 5683 5678 5675 5673 5670 5665 5660 5656 5651 5647 5643 5637 5632
5694 5697 5699 5701 5703 5704 5706 5707 5707 5708 5708 5709 5709 5708 5708 5708 5707 5706 5704 5703 5701 5698 5696 5693 5690 5687 5685 5681 5678 5674 5670 5666 5662 5659 5656 5652 5648 5643 5639 5635 5630 5624 5619
5684 5687 5689 5691 5693 5694 5695 5696 5697 5697 5698 5698 5697 5697 5697 5696 5695 5694 5693 5691 5689 5686 5684 5681 5678 5675 5672 5669 5665 5662 5658 5654 5650 5646 5643 5640 5636 5631 5626 5622 5618 5612 5607
5673 5676 5679 5680 5682 5683 5685 5686 5686 5687 5687 5686 5686 5686 5685 5684 5684 5682 5681 5679 5677 5674 5672 5669 5666 5663 5659 5656 5653 5649 5645 5641 5638 5634 5630 5627 5623 5618 5613 5608 5604 5600 5595
5663 5665 5668 5669 5671 5673 5674 5674 5675 5675 5675 5675 5675 5674 5673 5672 5671 5670 5668 5667 5664 5662 5659 5656 5653 5650 5647 5644 5640 5636 5633 5629 5625 5621 5618 5614 5610 5605 5600 5595 5591 5588 5584
5651 5654 5656 5658 5660 5661 5662 5663 5664 5664 5664 5664 5663 5662 5662 5660 5659 5657 5656 5654 5652 5649 5646 5644 5641 5638 5634 5631 5628 5624 5620 5616 5612 5608 5605 5601 5596 5592 5588 5584 5579 5574 5569
5640 5642 5645 5647 5648 5650 5651 5652 5652 5652 5652 5652 5651 5651 5650 5648 5646 5645 5643 5641 5639 5636 5634 5631 5628 5625 5622 5618 5615 5612 5608 5604 5600 5596 5592 5588 5583 5579 5575 5571 5566 5562 5557
5628 5631 5633 5635 5637 5638 5639 5640 5640 5640 5640 5640 5640 5639 5638 5636 5634 5632 5630 5628 5626 5624 5621 5618 5615 5612 5609 5606 5603 5600 5596 5592 5587 5583 5579 5575 5570 5566 5562 5558 5553 5549 5545
5617 5619 5621 5623 5625 5626 5627 5628 5628 5628 5628 5628 5627 5626 5625 5623 5621 5619 5617 5615 5613 5611 5609 5605 5602 5599 5596 5592 5589 5586 5583 5579 5575 5571 5567 5562 5558 5554 5549 5545 5540 5536 5532
5606 5608 5610 5612 5613 5614 5615 5615 5616 5616 5616 5616 5615 5614 5613 5611 5609 5606 5604 5602 5600 5598 5596 5593 5590 5586 5583 5579 5576 5573 5569 5566 5563 5559 5555 5551 5546 5542 5537 5533 5529 5524 5520
5594 5596 5598 5600 5601 5602 5603 5603 5604 5604 5604 5604 5603 5602 5600 5598 5596 5594 5591 5589 5587 5585 5583 5580 5577 5573 5570 5567 5563 5560 5557 5553 5550 5547 5543 5539 5535 5531 5527 5522 5518 5513 5508
5582 5584 5586 5587 5589 5590 5591 5591 5591 5592 5592 5591 5591 5590 5588 5586 5583 5581 5579 5576 5574 5572 5569 5567 5564 5561 5558 5555 5551 5548 5545 5542 5538 5535 5532 5528 5524 5520 5516 5512 5507 5502 5498
5570 5572 5574 5575 5577 5577 5578 5579 5579 5579 5579 5579 5578 5577 5575 5573 5571 5569 5566 5564 5562 5559 5557 5554 5551 5549 5546 5543 5540 5536 5533 5530 5527 5524 5520 5517 5513 5509 5506 5501 5497 5493 5488
5559 5560 5562 5563 5564 5565 5566 5567 5567 5567 5566 5566 5565 5564 5563 5561 5559 5556 5554 5552 5549 5547 5545 5542 5540 5537 5535 5532 5528 5525 5522 5519 5516 5513 5509 5506 5503 5499 5495 5491 5487 5482 5478
5547 5548 5550 5551 5552 5553 5554 5555 5554 5554 5554 5553 5552 5551 5550 5548 5546 5544 5542 5540 5537 5535 5533 5531 5529 5526 5523 5521 5517 5514 5511 5508 5505 5502 5499 5495 5492 5488 5485 5481 5477 5473 5469
5536 5537 5538 5538 5539 5540 5541 5542 5542 5542 5541 5540 5539 5538 5537 5536 5534 5532 5530 5528 5526 5524 5522 5520 5518 5515 5512 5509 5507 5504 5501 5498 5495 5492 5488 5485 5482 5478 5475 5471 5468 5464 5460
5524 5525 5526 5527 5527 5528 5529 5530 5530 5530 5529 5528 5527 5526 5525 5523 5522 5521 5519 5517 5516 5513 5511 5509 5507 5504 5502 5499 5496 5493 5491 5488 5485 5482 5478 5475 5472 5469 5466 5462 5459 5455 5451
5512 5513 5514 5515 5515 5516 5517 5517 5517 5517 5517 5516 5515 5514 5513 5512 5511 5509 5508 5506 5505 5503 5501 5498 5496 5494 5491 5488 5486 5483 5481 5478 5475 5472 5469 5466 5463 5460 5457 5453 5450 5446 5442
5500 5501 5502 5503 5504 5504 5505 5505 5505 5505 5505 5505 5504 5503 5502 5501 5500 5499 5497 5496 5494 5492 5490 5488 5486 5483 5481 5479 5476 5474 5472 5469 5466 5464 5461 5458 5455 5452 5449 5445 5441 5437 5434
5488 5489 5490 5491 5492 5493 5493 5494 5494 5494 5494 5493 5493 5492 5491 5490 5489 5488 5487 5485 5484 5482 5480 5478 5476 5474 5472 5470 5467 5465 5463 5461 5458 5455 5452 5450 5447 5444 5440 5437 5433 5429 5426
5477 5478 5480 5481 5481 5482 5483 5483 5483 5483 5483 5483 5482 5481 5481 5480 5479 5479 5477 5476 5474 5473 5471 5469 5467 5465 5463 5461 5459 5457 5454 5452 5449 5447 5444 5441 5438 5435 5432 5429 5425 5422 5418
5468 5469 5470 5471 5471 5472 5472 5472 5473 5473 5473 5473 5472 5472 5471 5471 5470 5469 5468 5466 5465 5463 5462 5460 5458 5456 5454 5452 5450 5448 5446 5443 5441 5438 5436 5433 5430 5427 5424 5421 5417 5414 5411
5459 5460 5461 5461 5462 5462 5463 5463 5463 5464 5464 5464 5463 5463 5462 5462 5461 5460 5459 5457 5456 5454 5452 5451 5449 5447 5446 5444 5442 5440 5438 5435 5433 5430 5428 5425 5422 5419 5416 5413 5410 5406 5403
5451 5452 5452 5453 5453 5453 5454 5454 5454 5455 5455 5455 5455 5454 5454 5453 5452 5451 5450 5448 5447 5445 5444 5442 5440 5439 5437 5435 5434 5432 5430 5427 5425 5422 5420 5417 5415 5412 5409 5406 5403 5400 5397
5443 5444 5444 5445 5445 5445 5445 5446 5446 5446 5447 5447 5446 5446 5445 5444 5443 5442 5441 5440 5438 5437 5435 5434 5432 5431 5429 5428 5426 5424 5422 5419 5417 5415 5412 5410 5408 5405 5402 5399 5397 5394 5391